VK6NP-1 Weather Reports


time (UTC)temp
C
wind
direction
speed
KPH
gust
KPH
rain 1hr
cm
rain 24hr
cm
rain mn
cm
humidity
%
barometer
mb
20260503181034 11 330 0.0 0.0 0.00 0.00 0.00 90 1028.6
20260503180535 11 330 0.0 0.0 0.00 0.00 0.00 90 1028.6
20260503180030 11 330 0.0 0.0 0.00 0.00 0.00 90 1028.6
20260503175532 11 330 0.0 0.0 0.00 0.00 0.00 90 1028.7
20260503175031 11 330 0.0 0.0 0.00 0.00 0.00 90 1028.6
20260503174526 11 330 0.0 0.0 0.00 0.00 0.00 90 1028.6
20260503174027 11 330 0.0 0.0 0.00 0.00 0.00 91 1028.7
20260503173527 11 330 0.0 0.0 0.00 0.00 0.00 90 1028.6
20260503173023 11 330 0.0 0.0 0.00 0.00 0.00 90 1028.6
20260503172523 11 330 0.0 0.0 0.00 0.00 0.00 90 1028.6
20260503172024 11 330 0.0 0.0 0.00 0.00 0.00 90 1028.6
20260503171521 11 330 0.0 0.0 0.00 0.00 0.00 89 1028.6
20260503171019 11 330 0.0 0.0 0.00 0.00 0.00 89 1028.6
20260503170520 11 330 0.0 0.0 0.00 0.00 0.00 88 1028.6
20260503150946 12 330 0.0 0.0 0.00 0.00 0.00 86 1028.2
20260503150447 12 330 0.0 0.0 0.00 0.00 0.00 87 1028.2
20260503130922 14 330 0.0 0.0 0.00 0.00 0.00 90 1027.6
20260503130422 14 330 0.0 0.0 0.00 0.00 0.00 90 1027.5
20260503110357 15 330 0.0 0.0 0.00 0.00 0.00 83 1026.7
20260503090335 19 330 0.0 0.0 0.00 0.00 0.00 61 1025.7
20260503080826 20 330 0.0 0.0 0.00 0.00 0.00 55 1025.4
20260503080327 20 330 0.0 0.0 0.00 0.00 0.00 55 1025.5
20260503072816 20 330 0.0 0.0 0.00 0.00 0.00 55 1025.5
20260503072317 20 330 0.0 0.0 0.00 0.00 0.00 55 1025.5
20260503071818 20 330 0.0 0.0 0.00 0.00 0.00 55 1025.4
20260503071315 20 330 0.0 0.0 0.00 0.00 0.00 56 1025.4
20260503070814 20 330 0.0 0.0 0.00 0.00 0.00 56 1025.4
20260503070316 20 330 0.0 0.0 0.00 0.00 0.00 55 1025.4
20260503060303 20 330 0.0 0.0 0.00 0.00 0.00 59 1025.7
20260503054759 18 330 0.0 0.0 0.00 0.00 0.00 62 1026.0
20260503054256 18 330 0.0 0.0 0.00 0.00 0.00 62 1026.0
20260503053756 18 330 0.0 0.0 0.00 0.00 0.00 62 1025.9
20260503053256 18 330 0.0 0.0 0.00 0.00 0.00 62 1026.0
20260503052752 18 330 0.0 0.0 0.00 0.00 0.00 63 1026.1
20260503052253 18 330 0.0 0.0 0.00 0.00 0.00 63 1026.1
20260503051753 18 330 0.0 0.0 0.00 0.00 0.00 63 1026.2
20260503051249 18 330 0.0 0.0 0.00 0.00 0.00 62 1026.3
20260503050749 18 330 0.0 0.0 0.00 0.00 0.00 62 1026.4
20260503050250 18 330 0.0 0.0 0.00 0.00 0.00 61 1026.4
20260503045746 18 330 0.0 0.0 0.00 0.00 0.00 62 1026.6
20260503045246 18 330 0.0 0.0 0.00 0.00 0.00 63 1026.6
20260503044746 18 330 0.0 0.0 0.00 0.00 0.00 65 1026.7
20260503044242 18 330 0.0 0.0 0.00 0.00 0.00 64 1026.9
20260503043743 18 330 0.0 0.0 0.00 0.00 0.00 64 1027.0
20260503043243 18 330 0.0 0.0 0.00 0.00 0.00 63 1027.0
20260503042740 18 330 0.0 0.0 0.00 0.00 0.00 63 1027.1
20260503042240 18 330 0.0 0.0 0.00 0.00 0.00 65 1027.2
20260503041740 18 330 0.0 0.0 0.00 0.00 0.00 65 1027.3
20260503041237 18 330 0.0 0.0 0.00 0.00 0.00 64 1027.5
20260503040738 18 330 0.0 0.0 0.00 0.00 0.00 64 1027.6
20260503040238 18 330 0.0 0.0 0.00 0.00 0.00 64 1027.7
20260503035735 18 330 0.0 0.0 0.00 0.00 0.00 64 1027.7
20260503035236 18 330 0.0 0.0 0.00 0.00 0.00 63 1027.8
20260503034736 18 330 0.0 0.0 0.00 0.00 0.00 64 1027.9
20260503034232 18 330 0.0 0.0 0.00 0.00 0.00 64 1028.1
20260503033732 18 330 0.0 0.0 0.00 0.00 0.00 66 1028.1
20260503033233 17 330 0.0 0.0 0.00 0.00 0.00 66 1028.1
20260503032729 17 330 0.0 0.0 0.00 0.00 0.00 65 1028.2
20260503032229 17 330 0.0 0.0 0.00 0.00 0.00 66 1028.2
20260503031730 17 330 0.0 0.0 0.00 0.00 0.00 65 1028.3
20260503031227 18 330 0.0 0.0 0.00 0.00 0.00 65 1028.4
20260503030726 18 330 0.0 0.0 0.00 0.00 0.00 66 1028.5
20260503030226 17 330 0.0 0.0 0.00 0.00 0.00 66 1028.6
20260503025724 17 330 0.0 0.0 0.00 0.00 0.00 66 1028.8
20260503025224 17 330 0.0 0.0 0.00 0.00 0.00 68 1028.8
20260503024724 17 330 0.0 0.0 0.00 0.00 0.00 68 1028.8
20260503023723 17 330 0.0 0.0 0.00 0.00 0.00 68 1029.0
20260503023222 17 330 0.0 0.0 0.00 0.00 0.00 69 1029.1
20260503022718 17 330 0.0 0.0 0.00 0.00 0.00 69 1029.2
20260503022218 17 330 0.0 0.0 0.00 0.00 0.00 70 1029.3
20260503021718 17 330 0.0 0.0 0.00 0.00 0.00 70 1029.3
20260503021216 16 330 0.0 0.0 0.00 0.00 0.00 70 1029.3
20260503020717 16 330 0.0 0.0 0.00 0.00 0.00 72 1029.4
20260503020216 16 330 0.0 0.0 0.00 0.00 0.00 71 1029.5
20260503015712 16 330 0.0 0.0 0.00 0.00 0.00 71 1029.5
20260503015214 16 330 0.0 0.0 0.00 0.00 0.00 72 1029.4
20260503014714 16 330 0.0 0.0 0.00 0.00 0.00 72 1029.5
20260503014210 16 330 0.0 0.0 0.00 0.00 0.00 74 1029.5
20260503013710 15 330 0.0 0.0 0.00 0.00 0.00 75 1029.5
20260503013211 15 330 0.0 0.0 0.00 0.00 0.00 75 1029.6
20260503012706 15 330 0.0 0.0 0.00 0.00 0.00 76 1029.6
20260503012207 15 330 0.0 0.0 0.00 0.00 0.00 78 1029.6
20260503011707 15 330 0.0 0.0 0.00 0.00 0.00 79 1029.6
20260503011205 14 330 0.0 0.0 0.00 0.00 0.00 80 1029.7
20260503010704 14 330 0.0 0.0 0.00 0.00 0.00 82 1029.7
20260503010204 13 330 0.0 0.0 0.00 0.00 0.00 85 1029.7
20260503005702 13 330 0.0 0.0 0.00 0.00 0.00 88 1029.8
20260503005202 12 330 0.0 0.0 0.00 0.00 0.00 91 1029.8
20260503004700 12 330 0.0 0.0 0.00 0.00 0.00 91 1029.8
20260503004157 12 330 0.0 0.0 0.00 0.00 0.00 95 1029.8
20260503003657 11 330 0.0 0.0 0.00 0.00 0.00 96 1029.8
20260503003158 11 330 0.0 0.0 0.00 0.00 0.00 96 1029.8
20260503002655 10 330 0.0 0.0 0.00 0.00 0.00 97 1029.8
20260503002155 10 330 0.0 0.0 0.00 0.00 0.00 97 1029.7
20260503001656 10 330 0.0 0.0 0.00 0.00 0.00 97 1029.8
20260503001152 10 330 0.0 0.0 0.00 0.00 0.00 97 1029.7
20260503000653 9 330 0.0 0.0 0.00 0.00 0.00 97 1029.7
20260503000153 9 330 0.0 0.0 0.00 0.00 0.00 97 1029.7
20260502235650 8 330 0.0 0.0 0.00 0.00 0.00 97 1029.6
20260502235150 8 330 0.0 0.0 0.00 0.00 0.00 97 1029.6
20260502234651 8 330 0.0 0.0 0.00 0.00 0.00 97 1029.5
20260502234147 8 330 0.0 0.0 0.00 0.00 0.00 97 1029.6
20260502233645 8 330 0.0 0.0 0.00 0.00 0.00 97 1029.4
20260502233146 8 330 0.0 0.0 0.00 0.00 0.00 97 1029.4
20260502232640 7 330 0.0 0.0 0.00 0.00 0.00 97 1029.2
20260502232140 7 330 0.0 0.0 0.00 0.00 0.00 97 1029.3
20260502231641 7 330 0.0 0.0 0.00 0.00 0.00 97 1029.2
20260502231138 7 330 0.0 0.0 0.00 0.00 0.00 97 1029.2
20260502230638 7 330 0.0 0.0 0.00 0.00 0.00 97 1029.0
20260502230138 7 330 0.0 0.0 0.00 0.00 0.00 97 1028.8
20260502225636 7 330 0.0 0.0 0.00 0.00 0.00 96 1028.8
20260502225136 7 330 0.0 0.0 0.00 0.00 0.00 96 1028.8
20260502224636 8 330 0.0 0.0 0.00 0.00 0.00 96 1028.6
20260502224133 8 330 0.0 0.0 0.00 0.00 0.00 96 1028.6
20260502223633 8 330 0.0 0.0 0.00 0.00 0.00 96 1028.6
20260502223133 8 330 0.0 0.0 0.00 0.00 0.00 96 1028.5
20260502222631 8 330 0.0 0.0 0.00 0.00 0.00 96 1028.5
20260502222131 8 330 0.0 0.0 0.00 0.00 0.00 96 1028.5
20260502221632 8 330 0.0 0.0 0.00 0.00 0.00 96 1028.4
20260502221128 8 330 0.0 0.0 0.00 0.00 0.00 96 1028.4
20260502220628 8 330 0.0 0.0 0.00 0.00 0.00 96 1028.4
20260502220128 8 330 0.0 0.0 0.00 0.00 0.00 96 1028.3
20260502215626 8 330 0.0 0.0 0.00 0.00 0.00 96 1028.2
20260502215126 8 330 0.0 0.0 0.00 0.00 0.00 96 1028.3
20260502214626 8 330 0.0 0.0 0.00 0.00 0.00 96 1028.2
20260502214123 8 330 0.0 0.0 0.00 0.00 0.00 96 1028.2
20260502213623 8 330 0.0 0.0 0.00 0.00 0.00 96 1028.2
20260502213124 8 330 0.0 0.0 0.00 0.00 0.00 96 1028.1
20260502212621 8 330 0.0 0.0 0.00 0.00 0.00 96 1028.1
20260502212121 8 330 0.0 0.0 0.00 0.00 0.00 96 1028.0
20260502211621 8 330 0.0 0.0 0.00 0.00 0.00 96 1028.0
20260502211118 8 330 0.0 0.0 0.00 0.00 0.00 96 1027.9
20260502210618 8 330 0.0 0.0 0.00 0.00 0.00 96 1027.9
20260502210118 8 330 0.0 0.0 0.00 0.00 0.00 96 1027.9
20260502205616 8 330 0.0 0.0 0.00 0.00 0.00 96 1027.7
20260502205116 8 330 0.0 0.0 0.00 0.00 0.00 96 1027.8
20260502204617 8 330 0.0 0.0 0.00 0.00 0.00 96 1027.7
20260502204113 8 330 0.0 0.0 0.00 0.00 0.00 96 1027.7
20260502203613 8 330 0.0 0.0 0.00 0.00 0.00 95 1027.7
20260502203114 8 330 0.0 0.0 0.00 0.00 0.00 95 1027.7
20260502202610 8 330 0.0 0.0 0.00 0.00 0.00 95 1027.6
20260502202110 8 330 0.0 0.0 0.00 0.00 0.00 95 1027.6
20260502201608 8 330 0.0 0.0 0.00 0.00 0.00 95 1027.6
20260502201104 8 330 0.0 0.0 0.00 0.00 0.00 95 1027.6
20260502200604 8 330 0.0 0.0 0.00 0.00 0.00 95 1027.6
20260502200105 8 330 0.0 0.0 0.00 0.00 0.00 95 1027.6
20260502195601 8 330 0.0 0.0 0.00 0.00 0.00 95 1027.6
20260502195102 8 330 0.0 0.0 0.00 0.00 0.00 95 1027.6
20260502194602 8 330 0.0 0.0 0.00 0.00 0.00 95 1027.6
20260502194058 9 330 0.0 0.0 0.00 0.00 0.00 95 1027.6
20260502193559 9 330 0.0 0.0 0.00 0.00 0.00 95 1027.6
20260502193059 9 330 0.0 0.0 0.00 0.00 0.00 95 1027.6
20260502192555 8 330 0.0 0.0 0.00 0.00 0.00 95 1027.7
20260502192056 8 330 0.0 0.0 0.00 0.00 0.00 95 1027.6
20260502191556 8 330 0.0 0.0 0.00 0.00 0.00 95 1027.7
20260502191053 8 330 0.0 0.0 0.00 0.00 0.00 95 1027.6
20260502190553 8 330 0.0 0.0 0.00 0.00 0.00 95 1027.6
20260502190054 8 330 0.0 0.0 0.00 0.00 0.00 94 1027.6
20260502185550 8 330 0.0 0.0 0.00 0.00 0.00 94 1027.6
20260502185051 8 330 0.0 0.0 0.00 0.00 0.00 94 1027.5
20260502184551 8 330 0.0 0.0 0.00 0.00 0.00 94 1027.5
20260502184046 8 330 0.0 0.0 0.00 0.00 0.00 94 1027.5
20260502183547 8 330 0.0 0.0 0.00 0.00 0.00 94 1027.5
20260502183047 8 330 0.0 0.0 0.00 0.00 0.00 94 1027.5
20260502182543 9 330 0.0 0.0 0.00 0.00 0.00 94 1027.4
20260502182044 9 330 0.0 0.0 0.00 0.00 0.00 93 1027.4
20260502181544 9 330 0.0 0.0 0.00 0.00 0.00 93 1027.4